CAPE
14 12 12 13 16 7 10 9 9 6 6 5 6 4 2 2 1 1 1 3 3 1 1 0 1 1 0 0 0 0 0 1 0 0 0 0 0 0 0 0 0 0 5 5 4 10 23
12 12 8 10 12 11 7 8 9 5 5 4 4 6 5 3 1 0 2 5 4 1 1 1 1 0 0 0 0 0 0 0 0 0 0 0 0 0 0 0 0 1 2 0 3 10 5
8 9 7 11 7 14 8 10 6 6 5 4 4 2 4 3 0 0 1 3 1 1 2 2 1 0 0 0 0 0 0 0 0 0 0 0 0 0 0 0 0 0 0 1 0 4 3
7 6 9 11 11 10 10 4 6 3 4 3 3 3 3 1 0 0 2 2 0 1 1 0 1 0 0 0 0 0 0 0 0 0 0 0 0 0 0 0 0 0 0 16 65 6 6
10 11 11 10 11 14 13 6 4 4 5 5 5 6 4 2 1 1 0 0 0 0 0 0 0 0 0 0 0 0 0 0 0 0 0 0 0 0 0 0 0 0 0 7 14 19 103
12 11 9 7 8 13 16 14 7 8 5 6 6 3 5 3 0 0 0 0 0 0 0 0 0 0 0 0 0 0 0 0 0 0 0 0 0 0 0 0 0 4 11 78 194 13 191
10 8 10 8 9 12 15 15 12 9 3 4 6 6 3 0 0 0 0 0 0 0 0 0 0 0 0 0 0 0 0 0 0 0 0 0 0 0 0 0 0 12 64 38 60 23 85
15 13 10 8 9 13 15 19 15 11 5 3 5 5 2 0 0 0 0 0 0 0 0 0 0 0 0 0 0 0 0 0 0 0 0 0 0 0 0 0 0 0 27 69 41 30 46
8 8 10 19 19 26 28 29 22 14 9 6 4 7 0 0 0 0 0 0 0 0 0 0 0 0 0 0 0 0 0 0 0 0 0 0 0 0 0 0 0 0 7 45 79 144 108
19 21 28 42 32 23 28 25 22 16 11 8 5 4 0 0 0 0 0 0 0 0 0 0 0 0 0 0 0 0 0 0 0 0 0 0 0 0 0 0 0 0 0 14 62 44 129
29 39 36 45 32 28 27 18 21 15 6 3 11 1 0 0 0 0 0 0 0 0 0 0 0 0 0 0 0 0 0 0 0 0 0 0 0 0 0 0 0 0 0 14 35 141 174
28 31 38 35 35 37 21 15 21 18 1 0 1 0 0 0 0 0 0 0 0 0 0 0 0 0 0 0 0 0 0 0 0 0 0 0 0 0 0 0 0 0 0 23 30 70 102
55 55 50 44 35 25 8 7 0 0 0 0 0 0 0 0 0 0 0 0 0 0 0 0 0 0 0 0 0 0 0 0 0 0 0 0 0 0 0 0 0 0 0 16 59 66 40
70 72 69 54 41 25 3 0 0 0 0 0 0 0 0 0 0 0 0 0 0 0 0 0 0 0 0 0 0 0 0 0 0 0 0 0 0 0 0 0 0 0 0 0 24 46 47
72 61 65 65 55 45 42 27 25 14 8 0 0 0 0 0 0 0 0 0 0 0 0 0 0 0 0 0 0 0 0 0 0 0 0 0 0 0 0 0 0 0 0 0 29 77 69
64 58 57 56 51 51 47 38 30 21 12 0 0 0 0 0 0 0 0 0 0 0 0 0 0 0 0 0 0 0 0 0 0 0 0 0 0 0 0 0 0 0 0 0 13 104 88
33 33 45 49 55 54 50 50 41 19 1 0 0 0 0 0 0 0 0 0 0 0 0 0 0 0 0 0 0 0 0 0 0 0 0 0 0 0 0 0 0 0 0 0 4 44 69
43 47 43 48 60 59 42 57 50 25 0 0 0 0 0 0 2 0 0 0 0 0 0 0 0 0 0 0 0 0 0 0 0 0 0 0 0 0 0 0 0 0 0 0 23 45 28
50 51 42 48 61 42 48 64 54 29 21 21 3 0 0 0 0 0 0 0 0 0 0 0 0 0 0 0 0 0 0 0 0 0 0 0 0 0 0 0 0 0 0 0 0 4 138
46 37 40 47 48 43 57 71 57 42 40 30 35 11 10 10 0 0 0 0 1 0 0 0 0 0 0 0 0 0 0 0 0 0 0 0 0 0 0 0 0 0 0 0 0 0 3
56 57 60 57 44 53 70 87 70 59 28 12 61 47 49 64 62 6 1 12 28 19 27 7 1 0 0 0 0 0 0 0 0 0 0 0 0 0 0 1 9 2 0 0 0 0 0
63 66 68 70 73 74 75 94 94 60 5 10 104 104 69 91 102 6 4 2 0 0 2 0 3 2 0 0 0 0 0 0 0 0 0 0 0 10 1 0 0 2 4 1 0 0 0
51 70 84 91 94 95 89 101 119 82 10 58 92 191 155 17 103 108 5 7 11 5 1 0 0 0 24 3 0 1 19 1 0 21 12 6 31 179 85 40 67 77 0 0 2 2 0
61 67 90 103 99 113 117 115 118 143 69 171 81 55 126 115 124 129 82 0 13 2 15 0 0 1 0 0 0 0 0 10 15 8 1 39 115 81 91 320 193 0 18 35 28 21 17
91 97 103 139 117 107 116 142 133 149 134 238 107 12 44 98 86 108 87 19 13 6 10 0 0 0 0 1 0 8 13 0 0 0 1 34 68 71 357 414 243 138 329 416 370 62 12
133 138 131 153 148 121 140 163 134 144 176 258 374 47 44 22 52 74 60 24 40 11 25 22 0 0 0 1 0 8 20 0 0 0 0 6 95 359 495 298 382 287 454 502 363 149 7
158 169 140 147 177 168 177 159 153 135 109 259 120 56 30 35 8 44 52 35 13 13 42 2 37 0 0 0 8 4 15 7 10 1 0 0 44 28 183 348 266 803 431 570 329 357 1104
127 106 89 64 128 164 151 146 152 157 90 174 234 299 55 20 7 31 31 55 1 34 3 26 51 27 45 71 54 35 21 18 44 82 94 4 63 47 232 217 254 674 648 611 1205 1033 1090
88 85 79 35 99 119 138 110 128 58 42 40 146 154 40 38 7 23 28 29 33 39 25 12 19 1 28 140 171 90 197 214 116 82 102 120 35 92 242 529 1269 917 791 908 905 1046 1033
CIN
-0 -0 -0 -0 -0 -0 -0 -0 -0 -0 -0 -0 -0 -0 -0 -0 -0 -0 -0 -0 -0 -0 -0 -0 -0 -0 -0 -0 -0 -0 -0 -84 -0 -0 -0 -0 -0 -0 -0 -0 -0 -0 -0 -0 -0 -0 -0
-0 -0 -0 -0 -0 -0 -0 -0 -0 -0 -0 -0 -0 -0 -0 -0 -0 -0 -0 -0 -0 -0 -0 -0 -0 -0 -0 -0 -0 -0 -0 -0 -0 -0 -0 -0 -0 -0 -0 -0 -0 -0 -0 -0 -0 -0 -0
-0 -0 -0 -0 -0 -0 -0 -0 -0 -0 -0 -0 -0 -0 -0 -0 -0 -0 -0 -0 -0 -0 -0 -0 -0 -0 -0 -0 -0 -0 -0 -0 -0 -0 -0 -0 -0 -0 -0 -0 -0 -0 -0 -0 -0 -0 -0
-0 -0 -0 -0 -0 -0 -0 -0 -0 -0 -0 -0 -0 -0 -0 -0 -0 -0 -0 -0 -0 -0 -0 -0 -0 -0 -0 -0 -0 -0 -0 -0 -0 -0 -0 -0 -0 -0 -0 -0 -0 -0 -0 -0 -1 -0 -0
-0 -0 -0 -0 -0 -0 -0 -0 -0 -0 -0 -0 -0 -0 -0 -0 -0 -0 -0 -0 -0 -0 -0 -0 -0 -0 -0 -0 -0 -0 -0 -0 -0 -0 -0 -0 -0 -0 -0 -0 -0 -0 -0 -2 -16 -10 -0
-0 -0 -0 -0 -0 -0 -0 -0 -0 -0 -0 -0 -0 -0 -0 -0 -0 -0 -0 -0 -0 -0 -0 -0 -0 -0 -0 -0 -0 -0 -0 -0 -0 -0 -0 -0 -0 -0 -0 -0 -0 -0 -0 -0 -1 -16 -0
-2 -0 -0 -0 -0 -0 -0 -0 -0 -0 -0 -0 -0 -0 -0 -0 -0 -0 -0 -0 -0 -0 -0 -0 -0 -0 -0 -0 -0 -0 -0 -0 -0 -0 -0 -0 -0 -0 -0 -0 -0 -0 -0 -0 -2 -1 -10
-0 -2 -2 -0 -0 -0 -0 -0 -0 -0 -0 -0 -0 -0 -0 -0 -0 -0 -0 -0 -0 -0 -0 -0 -0 -0 -0 -0 -0 -0 -0 -0 -0 -0 -0 -0 -0 -0 -0 -0 -0 -0 -0 -0 -2 -9 -0
-1 -2 -2 -1 -0 -0 -0 -0 -0 -0 -0 -0 -0 -0 -0 -0 -0 -0 -0 -0 -0 -0 -0 -0 -0 -0 -0 -0 -0 -0 -0 -0 -0 -0 -0 -0 -0 -0 -0 -0 -0 -0 -0 -0 -0 -8 -2
-4 -6 -1 -0 -0 -0 -0 -0 -0 -0 -0 -0 -0 -0 -0 -0 -0 -0 -0 -0 -0 -0 -0 -0 -0 -0 -0 -0 -0 -0 -0 -0 -0 -0 -0 -0 -0 -0 -0 -0 -0 -0 -0 -0 -1 -2 -0
-0 -0 -0 -0 -0 -0 -0 -0 -0 -0 -0 -0 -0 -0 -0 -0 -0 -0 -0 -0 -0 -0 -0 -0 -0 -0 -0 -0 -0 -0 -0 -0 -0 -0 -0 -0 -0 -0 -0 -0 -0 -0 -0 -0 -1 -0 -6
-0 -0 -0 -0 -0 -0 -0 -0 -0 -0 -0 -0 -0 -0 -0 -0 -0 -0 -0 -0 -0 -0 -0 -0 -0 -0 -0 -0 -0 -0 -0 -0 -0 -0 -0 -0 -0 -0 -0 -0 -0 -0 -0 -0 -0 -0 -0
-0 -0 -0 -0 -0 -0 -1 -1 -0 -0 -0 -0 -0 -0 -0 -0 -0 -0 -0 -0 -0 -0 -0 -0 -0 -0 -0 -0 -0 -0 -0 -0 -0 -0 -0 -0 -0 -0 -0 -0 -0 -0 -0 -0 -0 -0 -0
-0 -0 -0 -0 -0 -0 -4 -0 -0 -0 -0 -0 -0 -0 -0 -0 -0 -0 -0 -0 -0 -0 -0 -0 -0 -0 -0 -0 -0 -0 -0 -0 -0 -0 -0 -0 -0 -0 -0 -0 -0 -0 -0 -0 -0 -0 -0
-0 -0 -0 -0 -0 -0 -0 -0 -0 -0 -0 -0 -0 -0 -0 -0 -0 -0 -0 -0 -0 -0 -0 -0 -0 -0 -0 -0 -0 -0 -0 -0 -0 -0 -0 -0 -0 -0 -0 -0 -0 -0 -0 -0 -0 -0 -0
-0 -0 -0 -0 -0 -0 -0 -0 -0 -0 -1 -0 -0 -0 -0 -0 -0 -0 -0 -0 -0 -0 -0 -0 -0 -0 -0 -0 -0 -0 -0 -0 -0 -0 -0 -0 -0 -0 -0 -0 -0 -0 -0 -0 -0 -0 -0
-0 -0 -0 -0 -0 -0 -0 -0 -0 -1 -0 -0 -0 -0 -0 -0 -0 -0 -0 -0 -0 -0 -0 -0 -0 -0 -0 -0 -0 -0 -0 -0 -0 -0 -0 -0 -0 -0 -0 -0 -0 -0 -0 -0 -0 -0 -0
-0 -0 -0 -0 -0 -0 -0 -0 -0 -3 -0 -0 -0 -0 -0 -0 -0 -0 -0 -0 -0 -0 -0 -0 -0 -0 -0 -0 -0 -0 -0 -0 -0 -0 -0 -0 -0 -0 -0 -0 -0 -0 -0 -0 -0 -0 -0
-0 -0 -0 -0 -0 -0 -0 -0 -1 -5 -9 -0 -0 -0 -0 -0 -0 -0 -0 -0 -0 -0 -0 -0 -0 -0 -0 -0 -0 -0 -0 -0 -0 -0 -0 -0 -0 -0 -0 -0 -0 -0 -0 -0 -0 -0 -0
-0 -0 -0 -0 -0 -0 -0 -0 -3 -5 -6 -2 -0 -0 -0 -0 -0 -0 -0 -0 -0 -0 -0 -0 -0 -0 -0 -0 -0 -0 -0 -0 -0 -0 -0 -0 -0 -0 -0 -0 -0 -0 -0 -0 -0 -0 -0
-0 -0 -0 -0 -0 -0 -0 -0 -4 -6 -6 -1 -0 -0 -0 -0 -1 -10 -0 -3 -0 -2 -0 -0 -0 -0 -0 -0 -0 -0 -0 -0 -0 -0 -0 -0 -0 -0 -0 -0 -0 -0 -0 -0 -0 -0 -0
-0 -0 -0 -0 -0 -0 -0 -0 -2 -8 -5 -0 -0 -0 -1 -0 -0 -33 -1 -0 -0 -0 -1 -0 -14 -0 -0 -0 -0 -0 -0 -0 -0 -0 -0 -0 -0 -0 -0 -0 -0 -0 -0 -0 -0 -0 -0
-0 -0 -0 -0 -0 -0 -0 -0 -1 -10 -8 -1 -0 -0 -0 -2 -0 -0 -0 -0 -0 -3 -0 -0 -0 -0 -34 -1 -0 -49 -21 -0 -0 -0 -0 -0 -0 -0 -9 -11 -0 -0 -0 -0 -0 -0 -0
-0 -0 -0 -0 -0 -0 -0 -0 -0 -1 -3 -0 -0 -0 -0 -0 -0 -0 -0 -0 -0 -7 -2 -0 -0 -0 -0 -0 -0 -0 -0 -12 -11 -1 -0 -0 -0 -0 -10 -0 -0 -0 -1 -0 -0 -0 -0
-5 -0 -0 -0 -0 -0 -0 -0 -0 -0 -3 -0 -0 -0 -0 -0 -0 -0 -0 -0 -0 -0 -0 -0 -0 -0 -0 -0 -0 -18 -17 -0 -0 -0 -0 -1 -0 -12 -0 -1 -52 -54 -12 -3 -7 -3 -0
-0 -0 -0 -0 -0 -4 -0 -0 -0 -0 -3 -0 -0 -0 -0 -0 -4 -0 -0 -0 -0 -0 -0 -0 -1 -0 -0 -1 -0 -3 -0 -0 -0 -0 -0 -0 -1 -0 -0 -0 -0 -1 -11 -22 -21 -2 -8
-0 -0 -0 -0 -0 -0 -0 -0 -0 -0 -3 -0 -0 -0 -0 -2 -6 -9 -0 -0 -1 -0 -0 -0 -6 -0 -0 -0 -0 -0 -0 -0 -0 -3 -0 -0 -1 -0 -1 -0 -0 -19 -13 -26 -0 -3 -47
-0 -0 -0 -1 -0 -0 -1 -0 -0 -0 -2 -0 -0 -0 -1 -0 -0 -13 -1 -0 -0 -0 -10 -0 -0 -57 -0 -0 -0 -0 -0 -0 -0 -0 -0 -0 -0 -0 -0 -0 -0 -44 -18 -0 -49 -47 -32
-0 -1 -0 -0 -0 -4 -1 -0 -3 -1 -1 -2 -0 -0 -0 -0 -7 -8 -0 -0 -0 -0 -0 -0 -0 -0 -1 -1 -4 -32 -8 -12 -0 -0 -0 -0 -0 -8 -0 -2 -51 -91 -96 -68 -60 -33 -19
Wind_Speed
18 19 19 18 18 18 20 20 20 21 21 21 22 22 23 23 24 24 23 21 22 23 21 19 17 16 12 11 18 13 12 10 13 17 20 19 21 19 20 17 15 11 11 6 5 9 9
18 18 19 18 18 18 20 21 21 21 21 22 22 22 22 22 24 24 24 23 22 24 23 19 15 11 9 19 13 12 10 12 14 17 20 20 18 18 18 21 18 12 12 10 5 10 11
18 18 18 18 19 19 20 22 22 22 22 23 23 22 22 23 25 26 26 23 26 25 23 18 11 9 13 20 6 5 11 13 14 16 18 21 21 18 19 20 18 13 12 14 10 8 11
17 17 18 18 17 17 18 20 21 21 22 22 23 24 24 25 26 25 25 27 26 23 14 9 9 11 11 13 8 13 13 14 13 14 18 16 19 23 19 18 23 18 18 16 14 13 12
17 17 17 18 18 17 18 19 20 20 20 20 22 23 24 26 27 27 25 28 25 13 6 6 10 10 14 5 11 15 16 16 15 14 15 13 13 21 19 18 17 18 17 21 13 15 14
18 18 18 19 19 18 17 18 19 20 21 21 22 24 23 26 27 28 30 29 6 6 9 9 10 8 11 14 11 8 8 14 14 14 14 17 14 18 20 19 18 19 21 20 20 17 12
17 18 18 18 19 19 19 19 20 20 22 22 22 24 26 27 28 27 20 4 8 10 16 16 9 12 6 9 5 11 10 14 16 17 18 20 19 23 26 26 23 23 21 19 15 24 19
15 17 17 18 19 19 19 20 20 21 22 23 23 24 27 29 32 29 13 9 8 9 15 20 27 28 25 17 14 19 14 15 18 19 21 17 24 24 25 26 24 28 23 18 13 17 21
15 16 16 16 16 17 18 19 20 20 21 22 23 23 26 30 33 14 13 10 5 12 11 17 26 25 26 24 26 21 22 20 19 22 23 24 21 24 25 25 27 25 24 19 17 28 22
14 14 14 15 15 16 18 20 20 21 21 22 24 23 23 30 14 16 7 4 8 9 10 14 10 10 14 13 17 22 24 25 24 23 24 25 21 24 27 28 26 25 25 24 19 11 12
15 15 15 16 15 15 17 19 20 21 21 23 23 25 20 17 15 9 9 9 10 7 10 10 12 15 18 18 13 19 23 26 26 22 19 23 25 24 30 29 29 24 24 24 23 18 24
17 16 16 15 17 16 16 18 19 20 21 22 23 23 22 15 10 14 14 11 9 10 15 9 11 15 19 21 14 10 17 25 22 22 23 25 21 27 22 26 22 24 23 24 23 18 19
17 18 17 16 16 16 16 18 20 21 22 23 24 23 21 14 11 6 7 8 9 15 4 11 16 20 21 19 20 14 18 26 23 25 23 23 27 23 24 24 24 29 25 16 20 19 18
17 17 17 16 16 17 17 18 19 21 21 23 25 31 14 11 13 14 9 10 19 12 28 2 17 20 24 19 19 20 17 21 29 24 17 21 22 29 21 28 27 31 28 19 25 18 18
17 17 16 15 16 17 17 18 18 20 21 23 30 12 12 11 10 10 11 19 15 22 18 19 12 21 24 23 19 20 22 22 25 26 24 19 25 18 29 26 27 29 31 27 27 24 21
17 16 16 15 16 16 15 18 17 19 20 22 13 15 16 14 8 10 14 29 23 32 15 16 25 20 21 24 21 20 20 22 24 27 26 19 18 22 24 25 26 34 23 28 22 28 26
16 16 17 18 17 16 16 17 16 17 19 25 11 7 5 6 8 11 19 24 28 37 32 27 23 25 26 24 26 25 24 23 21 24 26 24 19 15 23 31 29 20 28 24 26 24 21
19 18 18 17 16 17 17 15 14 13 16 19 9 9 9 4 11 11 20 27 26 31 26 30 25 28 25 25 21 20 19 25 19 19 27 24 16 17 21 23 25 28 27 32 20 29 20
18 18 18 17 16 16 16 14 12 11 11 10 9 12 14 11 15 16 22 30 30 31 31 31 28 30 26 27 24 22 19 19 8 16 20 20 19 17 22 21 24 28 29 31 33 24 25
20 20 20 18 18 18 17 15 11 10 9 8 8 8 9 12 13 21 23 26 24 24 26 27 25 26 27 32 25 23 25 22 17 14 3 10 21 24 18 21 19 25 31 31 29 24 21
21 21 20 19 19 18 17 15 12 10 7 4 7 11 9 12 11 10 15 23 19 21 26 23 23 31 28 30 26 26 26 20 27 19 20 17 20 23 25 25 19 23 27 27 32 31 28
22 22 21 20 19 18 16 14 12 9 4 4 7 7 8 14 20 20 17 20 20 18 17 25 25 23 26 26 24 25 27 24 20 24 21 21 19 19 21 23 24 25 22 28 29 31 33
22 22 21 21 19 19 17 14 11 7 8 3 5 10 8 9 17 15 12 21 27 14 9 20 13 18 21 14 18 20 20 21 22 18 22 22 17 18 21 22 21 24 28 26 24 26 26
23 23 22 21 19 18 17 15 14 11 14 4 3 4 7 13 11 14 20 7 24 17 16 19 11 12 18 30 24 18 16 13 9 16 19 20 21 15 18 17 21 17 18 26 27 27 26
23 23 22 21 19 18 17 16 16 14 10 8 3 3 5 10 12 13 16 11 16 22 21 17 19 11 17 23 14 9 10 11 17 17 18 17 15 18 16 16 10 12 12 6 11 18 26
24 22 21 20 19 17 17 16 15 11 11 9 7 4 4 3 11 3 11 9 12 14 17 17 10 7 9 11 11 12 13 13 19 23 22 22 16 14 14 23 23 9 10 8 5 12 14
23 21 19 19 17 17 17 15 13 12 7 7 3 7 3 5 10 19 14 7 11 9 10 11 5 5 10 7 9 14 15 20 22 28 19 22 20 22 18 16 16 5 7 2 11 7 14
21 20 18 16 16 16 14 13 14 13 8 9 5 9 6 4 9 20 24 21 18 14 10 9 7 6 3 7 11 13 15 19 21 22 25 23 21 19 19 22 24 5 8 12 7 11 13
20 17 15 14 16 12 13 12 7 6 7 8 5 5 8 7 11 18 22 22 23 20 16 13 9 2 4 5 3 7 5 10 16 17 26 26 20 17 12 13 10 8 9 2 7 9 8
Wind_Direction
7 7 9 4 3 1 360 356 355 353 351 348 345 341 338 336 333 328 325 324 319 316 313 312 311 314 297 245 255 148 141 157 180 203 217 223 221 224 234 244 239 229 272 246 215 166 238
6 3 3 360 1 358 358 354 351 350 348 347 343 340 336 333 330 326 323 319 316 310 307 302 296 297 251 263 266 146 197 164 205 207 215 228 225 226 246 246 254 234 235 262 238 226 177
4 1 360 357 359 355 356 354 351 348 345 343 340 338 335 331 328 324 319 315 313 308 301 291 266 233 262 253 266 202 202 215 207 204 225 218 234 230 235 259 252 264 257 234 221 206 161
1 358 357 354 357 354 352 351 348 346 341 339 336 334 332 328 325 320 317 314 310 306 291 263 219 219 259 270 242 230 220 233 232 228 231 227 224 245 247 236 252 236 243 243 181 167 147
356 354 353 353 351 348 344 346 345 342 339 337 333 332 332 326 324 320 317 309 303 289 260 190 201 232 258 136 217 224 215 224 209 220 218 240 239 227 237 245 249 229 228 227 145 172 153
350 349 348 348 347 343 340 339 338 337 337 336 334 330 330 324 321 320 319 298 278 224 214 216 267 247 242 227 186 170 197 218 193 193 198 209 217 215 222 224 227 220 220 224 175 170 182
344 342 342 341 342 341 338 336 334 333 333 335 335 332 330 326 321 318 322 246 216 191 223 246 241 230 122 174 142 213 177 202 200 196 207 199 206 210 210 225 228 236 220 236 208 159 193
336 338 334 333 333 334 333 333 332 329 330 332 335 334 330 326 318 316 288 293 17 336 291 261 255 255 257 266 240 216 175 203 206 212 210 187 218 214 221 218 228 241 246 228 215 147 196
331 326 325 322 326 327 328 328 329 328 327 328 329 333 330 325 317 289 315 288 350 338 265 273 238 237 238 225 234 229 218 213 212 215 212 222 207 217 216 222 223 232 244 240 220 158 212
325 320 321 320 324 328 328 326 327 327 327 324 324 328 330 329 289 339 287 30 289 325 274 256 194 226 212 210 228 226 224 213 228 222 225 226 222 201 220 221 225 227 233 253 235 171 236
316 320 320 318 321 324 323 324 323 325 325 322 322 320 327 317 302 286 359 315 322 262 277 108 137 131 171 194 124 187 210 203 218 215 220 224 225 219 212 221 220 231 229 236 248 202 207
309 310 312 313 317 319 319 319 318 319 318 318 318 315 323 298 234 259 286 283 263 231 237 190 156 186 179 209 236 134 198 212 216 228 227 240 211 228 221 225 221 233 239 239 236 246 245
309 307 298 304 312 314 315 316 315 315 316 317 313 306 300 282 254 24 307 256 229 236 142 202 191 189 202 191 210 183 196 193 201 212 219 224 233 218 238 216 219 224 227 230 231 221 234
303 303 300 293 299 300 301 307 310 313 316 317 311 306 269 241 234 249 263 227 234 241 228 355 203 198 206 210 201 190 196 204 208 210 218 216 214 229 208 224 222 216 221 225 226 231 227
305 305 308 299 300 302 304 307 311 314 319 319 309 298 284 256 220 233 223 221 227 235 269 233 215 242 207 227 229 207 208 209 207 218 222 215 222 213 221 220 225 220 220 230 237 229 237
313 312 315 309 302 301 304 311 313 319 322 315 312 293 267 250 158 213 230 237 235 253 265 256 241 229 232 208 210 235 210 215 216 211 229 230 248 208 211 220 220 238 219 220 230 239 236
319 315 308 305 301 299 305 310 314 321 322 310 279 288 104 159 183 225 233 238 239 258 272 255 259 243 240 236 230 211 229 237 217 217 211 229 241 231 207 204 219 217 236 228 229 235 245
312 309 309 306 304 303 302 309 313 320 324 292 295 269 113 218 226 234 243 250 261 267 256 246 259 267 255 254 243 253 221 238 199 223 210 214 225 229 241 221 214 229 227 234 235 222 238
314 313 312 310 308 309 304 304 307 315 324 313 280 286 275 241 251 251 256 261 250 256 258 256 243 242 255 259 253 240 227 243 206 224 231 198 225 225 222 241 214 218 229 232 231 239 227
311 312 312 311 310 307 302 300 299 303 316 291 283 283 272 207 245 262 273 274 276 265 256 267 259 256 235 250 244 243 243 242 221 219 42 268 227 226 225 224 231 216 220 236 235 234 235
307 306 304 303 303 303 304 301 296 292 307 292 256 274 317 294 268 333 309 318 286 297 294 263 251 253 249 237 236 241 240 227 233 218 243 238 235 237 225 259 242 233 217 228 237 244 238
306 302 298 295 294 295 295 298 297 291 179 234 278 303 320 293 294 292 273 270 277 267 282 300 298 256 252 255 235 232 233 232 224 211 214 219 230 241 241 230 235 257 248 227 223 240 247
308 303 301 297 291 291 291 287 288 286 159 246 262 279 274 279 278 274 271 266 302 265 264 248 356 326 298 325 333 316 299 229 235 231 205 221 215 221 231 233 247 231 235 248 248 231 230
309 306 301 299 294 289 287 285 281 275 208 221 228 331 270 269 279 281 305 276 293 305 281 278 311 290 305 321 317 289 261 274 268 235 244 226 219 232 234 222 233 247 266 246 244 245 237
308 308 307 298 294 294 289 287 280 271 262 221 191 168 276 266 289 284 292 313 289 286 268 260 282 277 296 301 284 237 222 226 239 237 244 245 218 225 236 224 259 291 289 340 329 260 237
308 310 308 301 294 295 296 292 285 269 263 234 240 159 237 283 265 2 313 277 275 278 271 242 218 284 299 273 274 255 214 212 228 227 222 233 230 250 214 240 236 216 58 4 336 270 261
307 306 307 305 297 292 292 289 285 282 267 226 222 184 210 245 265 269 281 296 274 267 274 270 89 265 221 273 251 238 237 230 229 217 199 213 217 216 229 239 248 81 93 59 238 291 340
310 306 305 310 304 295 292 284 286 280 254 217 257 213 220 235 270 269 279 279 282 275 266 312 236 162 236 244 240 239 239 234 238 228 212 203 204 218 215 230 234 81 188 229 10 322 312
311 311 305 304 305 301 302 296 287 271 245 218 274 219 199 232 273 306 279 273 266 264 285 289 299 348 281 267 299 324 329 301 238 255 205 208 209 206 221 213 88 83 76 40 335 313 317